Flag for U.S.A. Weather past 2 weeks in Oklahoma City, Oklahoma, U.S.A.

Now
43 °F

Overcast.


Feels Like: 38 °F
Forecast: 40 / 50 °F
Wind: 9 mph from South

Location: Will Rogers World Airport

Current Time: Dec 21, 2014 at 5:01:27 AM

Latest Report: Dec 21, 2014 at 3:52 AM


Visibility: 10 mi

Pressure: 30.07 "Hg

Humidity: 82%

Dew point: 38 °F

Location of Oklahoma CityLocation

Historic Weather in Oklahoma City — Graph

°F

Oklahoma City temperature yesterday

Maximum temperature yesterday: 45 °F (at 12:52 PM)
Minimum temperature yesterday: 38 °F (at 4:52 AM)
Average temperature yesterday: 42 °F

Past Weeks' High & Low Weather Summary

 TemperatureHumidityPressure
High66 °F (Dec 13, 2:52 PM)97% (Dec 13, 9:52 AM)30.50 "Hg (Dec 13, 9:52 AM)
Low33 °F (Dec 16, 4:52 AM)37% (Dec 15, 3:52 PM)29.64 "Hg (Dec 14, 5:52 PM)
Average46 °F80%30.18 "Hg
* Reported Dec 6 3:52 AM — Dec 21 3:52 AM, Oklahoma City, Weather by CustomWeather, © 2014

Note: Actual official high and low records may vary slightly from our data, if they occured in-between our weather recording intervals... More about our weather records

Advertising

Oklahoma City weather history for previous 24 hours

 ConditionsComfort  
Time TempWeatherWind HumidityBarometerVisibility
3:52 AM
Dec 21
43 °FOvercast.9 mph82%30.07 "Hg10 mi
2:52 AM43 °FOvercast.10 mph79%30.08 "Hg10 mi
1:52 AM43 °FOvercast.8 mph79%30.10 "Hg10 mi
12:52 AM42 °FOvercast.10 mph82%30.11 "Hg10 mi
11:52 PM
Dec 20
42 °FOvercast.8 mph82%30.13 "Hg10 mi
10:52 PM42 °FOvercast.9 mph82%30.14 "Hg9 mi
9:52 PM42 °FOvercast.6 mph82%30.16 "Hg9 mi
8:52 PM42 °FOvercast.7 mph82%30.16 "Hg9 mi
7:52 PM42 °FMostly cloudy.7 mph82%30.16 "Hg10 mi
6:52 PM43 °FOvercast.8 mph76%30.15 "Hg10 mi
5:52 PM43 °FOvercast.12 mph79%30.14 "Hg10 mi
4:52 PM44 °FOvercast.9 mph76%30.16 "Hg10 mi
3:52 PM44 °FOvercast.7 mph76%30.16 "Hg10 mi
2:52 PM44 °FOvercast.10 mph76%30.16 "Hg10 mi
2:02 PM45 °FOvercast.7 mph76%30.15 "Hg10 mi
1:52 PM44 °FOvercast.9 mph76%30.16 "Hg10 mi
12:52 PM45 °FOvercast.13 mph74%30.18 "Hg10 mi
11:52 AM44 °FOvercast.10 mph76%30.22 "Hg10 mi
10:52 AM44 °FOvercast.8 mph73%30.23 "Hg9 mi
9:52 AM43 °FOvercast.8 mph74%30.23 "Hg10 mi
8:52 AM42 °FOvercast.5 mph79%30.23 "Hg9 mi
7:52 AM41 °FOvercast.6 mph80%30.22 "Hg10 mi
6:52 AM40 °FOvercast.6 mph83%30.22 "Hg10 mi
5:52 AM40 °FOvercast.3 mph83%30.22 "Hg8 mi
Weather by CustomWeather, © 2014

See weather overviewHow to use our weather pages